KC3ROS Weather Reports


Display with metric or nautical units.
time (UTC)temp
F
wind
direction
speed
MPH
gust
MPH
rain 1hr
in
rain 24hr
in
rain mn
in
humidity
%
barometer
mb
20260904215656 80 247 0.0 2.0 0.00 0.73 0.73 76 1013.9
20260904215153 80 284 0.0 3.0 0.00 0.73 0.73 76 1013.8
20260904214652 79 322 0.0 3.0 0.00 0.73 0.73 76 1013.9
20260904214148 80 281 0.0 2.0 0.00 0.73 0.73 78 1013.9
20260904213646 79 222 2.0 3.0 0.00 0.73 0.73 76 1014.0
20260904213143 80 321 0.0 3.0 0.00 0.73 0.73 78 1013.8
20260904212638 79 243 3.0 3.0 0.00 0.73 0.73 77 1013.9
20260904212133 79 255 0.0 5.0 0.00 0.73 0.73 78 1013.9
20260904211632 80 261 2.0 6.0 0.00 0.73 0.73 76 1013.8
20260904211127 80 247 2.0 5.0 0.00 0.73 0.73 75 1013.9
20260904210622 81 250 3.0 4.0 0.00 0.73 0.73 77 1013.8
20260904210118 81 259 2.0 3.0 0.00 0.73 0.73 76 1013.9
20260904205613 79 338 1.0 2.0 0.00 0.73 0.73 79 1014.2
20260904205109 79 315 0.0 2.0 0.00 0.73 0.73 79 1014.3
20260904204605 80 324 1.0 2.0 0.00 0.73 0.73 80 1014.0
20260904204101 79 262 3.0 4.0 0.00 0.73 0.73 79 1014.4
20260904203556 79 275 2.0 3.0 0.00 0.73 0.73 81 1014.5
20260904203053 79 113 0.0 0.0 0.00 0.73 0.73 83 1014.4
20260904202548 79 332 0.0 1.0 0.00 0.73 0.73 82 1014.7
20260904202044 79 330 1.0 2.0 0.00 0.73 0.73 82 1014.8
20260904201539 79 246 2.0 3.0 0.00 0.73 0.73 84 1014.6
20260904201034 77 322 0.0 2.0 0.00 0.73 0.73 84 1014.7
20260904200533 77 327 1.0 2.0 0.00 0.73 0.73 84 1014.8
20260904200029 78 228 0.0 2.0 0.00 0.73 0.73 82 1014.3
20260904195527 78 220 1.0 4.0 0.00 0.73 0.73 81 1014.6
20260904195026 78 255 0.0 2.0 0.00 0.73 0.73 83 1014.2
20260904194521 78 15 0.0 1.0 0.00 0.73 0.73 83 1014.0
20260904194016 77 351 0.0 1.0 0.00 0.73 0.73 84 1014.5
20260904193511 77 283 0.0 2.0 0.00 0.73 0.73 85 1014.8
20260904193007 78 336 2.0 4.0 0.00 0.73 0.73 84 1015.1
20260904192506 77 230 2.0 4.0 0.00 0.73 0.73 84 1015.5
20260904191957 77 340 5.0 7.0 0.00 0.73 0.73 85 1015.5
20260904191453 77 304 2.0 5.0 0.00 0.73 0.73 85 1016.0
20260904190950 78 300 2.0 3.0 0.00 0.73 0.73 86 1016.2
20260904190445 77 258 1.0 3.0 0.00 0.73 0.73 87 1015.9
20260904185941 76 340 2.0 4.0 0.00 0.73 0.73 88 1015.8
20260904185437 77 338 3.0 4.0 0.00 0.73 0.73 89 1015.8
20260904184937 77 249 0.0 2.0 0.00 0.73 0.73 88 1015.9
20260904184431 76 263 2.0 3.0 0.00 0.73 0.73 90 1016.0
20260904183927 77 324 1.0 3.0 0.00 0.73 0.73 89 1016.0
20260904183422 77 269 2.0 3.0 0.00 0.73 0.73 90 1016.0
20260904182917 77 243 2.0 3.0 0.00 0.73 0.73 90 1016.0
20260904182413 78 275 1.0 3.0 0.00 0.73 0.73 89 1015.7
20260904181907 77 9 1.0 4.0 0.00 0.73 0.73 90 1015.7
20260904181402 77 25 0.0 2.0 0.00 0.73 0.73 91 1016.1
20260904180857 75 273 2.0 3.0 0.00 0.73 0.73 91 1015.8
20260904180353 75 336 3.0 5.0 0.00 0.73 0.73 91 1015.8
20260904175852 75 279 0.0 3.0 0.00 0.73 0.73 91 1016.0
20260904175350 76 337 2.0 4.0 0.00 0.73 0.73 91 1015.9
20260904174845 75 336 0.0 1.0 0.00 0.73 0.73 92 1015.9
20260904174341 75 4 1.0 1.0 0.00 0.73 0.73 93 1016.2
20260904173837 74 25 0.0 2.0 0.00 0.73 0.73 94 1016.1
20260904173332 75 351 0.0 2.0 0.00 0.73 0.73 95 1016.0
20260904172828 75 331 0.0 2.0 0.00 0.73 0.73 96 1016.0
20260904172327 75 101 1.0 2.0 0.00 0.73 0.73 97 1016.0
20260904171822 74 117 0.0 2.0 0.00 0.73 0.73 98 1016.0
20260904171317 73 129 0.0 3.0 0.00 0.73 0.73 99 1016.1
20260904170814 72 0 1.0 2.0 0.00 0.73 0.73 99 1016.4
20260904170309 72 0 2.0 2.0 0.00 0.73 0.73 99 1016.6
20260904165808 72 6 0.0 1.0 0.00 0.73 0.73 99 1016.8
20260904165305 72 62 0.0 0.0 0.00 0.73 0.73 99 1016.6
20260904164756 72 322 0.0 1.0 0.00 0.73 0.73 99 1016.7
20260904164252 72 348 0.0 1.0 0.00 0.73 0.73 99 1016.6
20260904163748 72 13 0.0 1.0 0.00 0.73 0.73 99 1016.5
20260904163243 72 289 1.0 2.0 0.00 0.73 0.73 99 1017.0
20260904162742 71 89 0.0 3.0 0.00 0.73 0.73 99 1016.6
20260904162237 71 356 1.0 4.0 0.00 0.73 0.73 99 1017.0
20260904161733 71 338 0.0 2.0 0.00 0.73 0.73 99 1017.2
20260904161233 72 350 0.0 2.0 0.00 0.73 0.73 99 1017.1
20260904160728 71 218 0.0 4.0 0.00 0.73 0.73 99 1017.5
20260904160224 71 283 0.0 3.0 0.00 0.73 0.73 99 1017.4
20260904155724 72 269 0.0 2.0 0.00 0.73 0.73 99 1017.5
20260904155223 71 269 0.0 1.0 0.00 0.73 0.73 99 1017.3
20260904154722 71 25 0.0 2.0 0.00 0.73 0.73 99 1017.5
20260904154216 71 251 2.0 2.0 0.00 0.73 0.73 99 1017.8
20260904153712 71 238 1.0 3.0 0.07 0.73 0.73 99 1017.7
20260904153207 71 315 1.0 4.0 0.07 0.73 0.73 99 1017.9
20260904152703 71 326 3.0 5.0 0.00 0.72 0.72 99 1017.9
20260904152159 72 336 1.0 3.0 0.00 0.72 0.72 99 1017.6
20260904151654 72 278 1.0 3.0 0.00 0.72 0.72 99 1017.5
20260904151152 72 311 0.0 5.0 0.00 0.72 0.72 99 1017.2
20260904150648 71 309 0.0 1.0 0.00 0.72 0.72 99 1016.8
20260904150144 72 7 0.0 0.0 0.00 0.72 0.72 99 1016.6
20260904145642 71 333 0.0 0.0 0.00 0.72 0.72 99 1016.8
20260904145137 72 329 0.0 0.0 0.00 0.72 0.72 99 1016.8
20260904144632 71 344 0.0 2.0 0.00 0.72 0.72 99 1016.7
20260904144128 70 351 0.0 2.0 0.00 0.72 0.72 99 1016.7
20260904143624 70 322 0.0 1.0 0.00 0.72 0.72 99 1016.7
20260904143120 70 351 0.0 1.0 0.00 0.72 0.72 99 1016.6
20260904142617 69 230 0.0 2.0 0.00 0.72 0.72 99 1016.5
20260904142112 70 240 0.0 1.0 0.00 0.72 0.72 99 1016.5
20260904141607 70 237 2.0 3.0 0.00 0.72 0.72 99 1016.4
20260904141103 70 79 1.0 2.0 0.00 0.72 0.72 99 1016.3
20260904140557 69 284 0.0 2.0 0.00 0.72 0.72 99 1016.4
20260904140052 69 118 0.0 1.0 0.00 0.72 0.72 99 1016.2
20260904135550 69 50 0.0 1.0 0.00 0.72 0.72 99 1016.3
20260904135047 69 252 1.0 2.0 0.00 0.72 0.72 99 1016.3
20260904134542 69 109 0.0 2.0 0.00 0.72 0.72 99 1016.3
20260904134036 69 253 0.0 2.0 0.00 0.72 0.72 99 1016.5
20260904133531 69 269 0.0 0.0 0.00 0.72 0.72 99 1016.6
20260904133028 69 110 1.0 3.0 0.00 0.72 0.72 99 1016.5
20260904132522 69 235 0.0 0.0 0.00 0.72 0.72 99 1016.5
20260904132021 69 230 0.0 1.0 0.00 0.72 0.72 99 1016.7
20260904131516 69 230 0.0 1.0 0.00 0.72 0.72 99 1016.5
20260904131012 69 75 0.0 1.0 0.00 0.72 0.72 99 1016.4
20260904130511 69 333 0.0 1.0 0.00 0.72 0.72 99 1016.4
20260904130006 69 93 1.0 2.0 0.00 0.72 0.72 99 1016.7
20260904125502 68 304 0.0 1.0 0.00 0.72 0.72 99 1016.6
20260904124956 68 6 0.0 1.0 0.00 0.72 0.72 99 1016.6
20260904124452 68 124 0.0 1.0 0.00 0.72 0.72 99 1016.6
20260904123948 68 353 0.0 1.0 0.00 0.72 0.72 99 1016.7
20260904123442 68 321 0.0 1.0 0.00 0.72 0.72 99 1016.7
20260904122938 67 297 0.0 1.0 0.00 0.72 0.72 99 1016.6
20260904122437 67 218 0.0 0.0 0.00 0.72 0.72 99 1016.8
20260904121931 66 231 0.0 2.0 0.00 0.72 0.72 99 1017.0
20260904121428 67 353 0.0 2.0 0.00 0.72 0.72 99 1017.0
20260904120919 66 217 0.0 1.0 0.00 0.72 0.72 99 1016.8
20260904120414 66 157 0.0 0.0 0.00 0.72 0.72 99 1016.6
20260904115910 66 309 0.0 1.0 0.00 0.72 0.72 99 1016.8
20260904115404 66 224 0.0 2.0 0.00 0.72 0.72 99 1017.0
20260904114858 66 343 0.0 1.0 0.00 0.72 0.72 99 1016.7
20260904114353 66 237 1.0 3.0 0.00 0.72 0.72 99 1016.7
20260904113849 66 230 1.0 2.0 0.00 0.72 0.72 99 1016.8
20260904113348 66 269 0.0 2.0 0.00 0.72 0.72 99 1016.6
20260904112843 66 223 0.0 1.0 0.00 0.72 0.72 99 1016.6
20260904112338 66 333 0.0 1.0 0.00 0.72 0.72 99 1016.2
20260904111834 65 235 0.0 2.0 0.00 0.72 0.72 99 1016.1
20260904111330 65 244 1.0 2.0 0.00 0.72 0.72 99 1016.0
20260904110825 65 193 0.0 1.0 0.00 0.72 0.72 99 1015.9
20260904110325 66 175 0.0 2.0 0.00 0.72 0.72 99 1016.1
20260904105824 65 154 0.0 1.0 0.00 0.72 0.72 99 1016.3
20260904105320 65 48 0.0 0.0 0.00 0.72 0.72 99 1016.2
20260904104814 65 205 0.0 1.0 0.00 0.72 0.72 99 1016.0
20260904104310 65 242 0.0 1.0 0.00 0.72 0.72 99 1016.1
20260904103807 65 326 0.0 1.0 0.00 0.72 0.72 99 1016.1
20260904103306 65 333 0.0 1.0 0.00 0.72 0.72 99 1016.0
20260904102801 66 19 0.0 2.0 0.00 0.72 0.72 99 1016.2
20260904102258 66 15 0.0 1.0 0.00 0.72 0.72 99 1016.1
20260904101753 66 157 0.0 0.0 0.00 0.72 0.72 99 1016.1
20260904101249 66 44 0.0 2.0 0.00 0.72 0.72 99 1015.9
20260904100744 66 258 0.0 2.0 0.00 0.72 0.72 99 1015.9
20260904100241 66 255 0.0 2.0 0.00 0.72 0.72 99 1015.8
20260904095741 66 269 0.0 2.0 0.00 0.72 0.72 99 1015.8
20260904095241 66 266 0.0 1.0 0.00 0.72 0.72 99 1015.6
20260904094736 66 327 0.0 2.0 0.00 0.72 0.72 99 1015.4
20260904094231 66 297 0.0 1.0 0.00 0.72 0.72 99 1015.6
20260904093728 66 230 0.0 1.0 0.00 0.72 0.72 99 1015.5
20260904093227 66 142 0.0 1.0 0.00 0.72 0.72 99 1015.8
20260904092723 66 269 0.0 1.0 0.00 0.72 0.72 99 1015.7
20260904092219 66 212 0.0 2.0 0.00 0.72 0.72 99 1015.8
20260904091715 66 266 1.0 2.0 0.00 0.72 0.72 99 1015.9
20260904091210 66 262 1.0 2.0 0.00 0.72 0.72 99 1015.9
20260904090705 66 250 1.0 3.0 0.00 0.72 0.72 99 1015.9
20260904090201 66 243 1.0 2.0 0.00 0.72 0.72 99 1015.8
20260904085655 66 217 0.0 1.0 0.00 0.72 0.72 99 1015.8
20260904085150 66 129 0.0 1.0 0.00 0.72 0.72 99 1016.0
20260904084645 66 212 0.0 2.0 0.00 0.72 0.72 99 1015.9
20260904084142 66 351 0.0 2.0 0.00 0.72 0.72 99 1015.7
20260904083638 66 343 1.0 2.0 0.00 0.72 0.72 99 1015.8
20260904083134 66 353 1.0 2.0 0.00 0.72 0.72 99 1015.9
20260904082628 66 326 0.0 2.0 0.00 0.72 0.72 99 1015.8
20260904082124 66 313 1.0 2.0 0.00 0.72 0.72 99 1015.7
20260904081619 66 337 0.0 2.0 0.00 0.72 0.72 99 1015.8
20260904081114 66 255 0.0 3.0 0.00 0.72 0.72 99 1015.9
20260904080610 66 236 0.0 2.0 0.00 0.72 0.72 99 1015.8
20260904080106 66 256 0.0 3.0 0.00 0.72 0.72 99 1015.8
20260904075601 66 251 1.0 2.0 0.00 0.72 0.72 99 1015.5
20260904075056 67 225 1.0 3.0 0.00 0.72 0.72 99 1015.5
20260904074555 66 189 0.0 3.0 0.00 0.72 0.72 99 1015.6
20260904074050 66 269 0.0 2.0 0.00 0.72 0.72 99 1015.5
20260904073545 66 252 1.0 2.0 0.00 0.72 0.72 99 1015.4
20260904073041 66 333 0.0 2.0 0.00 0.72 0.72 99 1015.8
20260904072536 66 230 0.0 1.0 0.00 0.72 0.72 99 1015.6
20260904072031 67 252 1.0 1.0 0.00 0.72 0.72 99 1015.7
20260904071526 67 237 0.0 2.0 0.00 0.72 0.72 99 1015.7
20260904071022 67 225 1.0 3.0 0.00 0.72 0.72 99 1015.8
20260904070521 67 245 0.0 3.0 0.00 0.72 0.72 99 1015.6
20260904070016 67 269 0.0 2.0 0.00 0.72 0.72 99 1015.6
20260904065511 67 281 3.0 5.0 0.00 0.72 0.72 99 1015.7
20260904065007 67 263 2.0 3.0 0.00 0.72 0.72 99 1015.5
20260904064503 67 212 0.0 3.0 0.00 0.72 0.72 99 1015.6
20260904064003 67 300 1.0 2.0 0.00 0.72 0.72 99 1015.7
20260904063459 67 292 2.0 3.0 0.00 0.72 0.72 99 1015.9
20260904062954 67 259 1.0 3.0 0.00 0.72 0.72 99 1015.9
20260904062450 67 249 1.0 3.0 0.00 0.72 0.72 99 1015.5
20260904061945 67 330 0.0 5.0 0.00 0.72 0.72 99 1016.0
20260904061442 67 269 0.0 6.0 0.00 0.72 0.72 99 1015.9
20260904060937 67 283 3.0 3.0 0.00 0.72 0.72 99 1015.9
20260904060433 67 276 2.0 5.0 0.00 0.72 0.72 99 1016.1
20260904055929 67 251 0.0 3.0 0.00 0.72 0.72 99 1016.2
20260904055424 67 252 1.0 4.0 0.00 0.72 0.72 99 1015.8
20260904054920 67 271 3.0 3.0 0.00 0.72 0.72 99 1016.0
20260904054415 67 228 0.0 3.0 0.09 0.72 0.72 99 1016.2
20260904053911 67 224 0.0 6.0 0.24 0.72 0.72 99 1016.8
20260904053410 67 236 1.0 3.0 0.35 0.70 0.70 99 1016.7
20260904052906 67 299 3.0 6.0 0.83 0.67 0.67 99 1017.1
20260904052402 67 215 0.0 3.0 3.31 0.61 0.61 99 1016.5
20260904051859 67 240 2.0 5.0 3.00 0.50 0.50 99 1016.8
20260904051354 68 300 3.0 5.0 0.17 0.03 0.03 99 1017.5
20260904050848 68 357 5.0 7.0 0.00 0.00 0.00 99 1016.4
20260904050345 67 359 5.0 5.0 0.00 0.00 0.00 99 1015.9
20260904045840 67 353 0.0 3.0 0.00 0.00 0.00 99 1015.3
20260904045334 67 26 0.0 2.0 0.00 0.00 0.00 99 1015.3
20260904044829 67 246 0.0 3.0 0.00 0.00 0.00 99 1015.4
20260904044325 67 261 2.0 3.0 0.00 0.00 0.00 99 1015.1
20260904043821 67 258 2.0 3.0 0.00 0.00 0.00 99 1015.5
20260904043317 67 245 0.0 3.0 0.00 0.00 0.00 99 1015.5
20260904042812 67 246 2.0 3.0 0.00 0.00 0.00 99 1015.7
20260904042309 67 249 3.0 5.0 0.00 0.00 0.00 99 1015.6
20260904041809 68 243 2.0 4.0 0.00 0.00 0.00 99 1015.5
20260904041305 68 255 0.0 2.0 0.00 0.00 0.00 99 1015.4
20260904040800 68 343 0.0 4.0 0.00 0.00 0.00 99 1015.5
20260904040256 68 244 1.0 2.0 0.00 0.00 0.00 99 1015.5
20260904035752 68 242 3.0 5.0 0.00 1.80 1.80 99 1015.9
20260904035247 68 254 2.0 3.0 0.00 1.80 1.80 99 1015.6
20260904034746 68 261 2.0 3.0 0.00 1.80 1.80 99 1015.6
20260904034242 68 319 1.0 5.0 0.00 1.80 1.80 99 1015.8
20260904033737 68 237 3.0 4.0 0.00 1.80 1.80 99 1015.6
20260904033234 68 52 0.0 4.0 0.00 1.80 1.80 99 1015.8
20260904032729 68 240 3.0 4.0 0.00 1.80 1.80 99 1015.8
20260904032228 68 249 2.0 4.0 0.00 1.80 1.80 99 1016.1
20260904031723 68 261 0.0 3.0 0.00 1.80 1.80 99 1015.9
20260904031218 68 230 1.0 5.0 0.00 1.80 1.80 99 1015.9
20260904030714 68 239 3.0 5.0 0.00 1.80 1.80 99 1015.9
20260904030209 68 272 2.0 4.0 0.00 1.80 1.80 99 1015.9
20260904025706 68 269 4.0 6.0 0.00 1.80 1.80 99 1015.9
20260904025201 68 258 0.0 5.0 0.00 1.80 1.80 99 1015.8
20260904024656 68 340 0.0 4.0 0.00 1.80 1.80 99 1016.0
20260904024151 68 252 3.0 6.0 0.00 1.80 1.80 99 1016.1
20260904023647 68 60 0.0 3.0 0.00 1.80 1.80 99 1016.3
20260904023143 68 310 0.0 4.0 0.00 1.80 1.80 99 1016.2
20260904022643 68 237 3.0 5.0 0.00 1.80 1.80 99 1016.3
20260904022140 68 257 2.0 4.0 0.00 1.80 1.80 99 1016.4
20260904021630 68 253 1.0 3.0 0.00 1.80 1.80 99 1016.4
20260904021125 68 260 0.0 1.0 0.00 1.80 1.80 99 1016.4
20260904020621 68 242 0.0 0.0 0.00 1.80 1.80 99 1016.3
20260904020115 68 249 1.0 2.0 0.00 1.80 1.80 99 1016.8
20260904015615 68 32 0.0 0.0 0.00 1.80 1.80 99 1016.6
20260904015114 68 15 0.0 0.0 0.00 1.80 1.80 99 1016.6
20260904014608 68 322 0.0 1.0 0.00 1.80 1.80 99 1016.4
20260904014104 68 33 1.0 3.0 0.00 1.80 1.80 99 1016.2
20260904013601 68 237 1.0 2.0 0.00 1.80 1.80 99 1016.3
20260904013056 68 124 0.0 2.0 0.00 1.80 1.80 99 1016.4
20260904012556 68 72 1.0 3.0 0.00 1.80 1.80 99 1016.4
20260904012056 68 212 0.0 1.0 0.00 1.80 1.80 99 1016.6
20260904011550 69 217 0.0 2.0 0.00 1.80 1.80 99 1016.7
20260904011045 69 121 0.0 2.0 0.00 1.80 1.80 99 1016.1
20260904010541 69 46 1.0 2.0 0.00 1.80 1.80 99 1016.3
20260904010038 69 53 0.0 3.0 0.02 1.80 1.80 99 1016.1
20260904005537 69 12 3.0 3.0 0.09 1.80 1.80 99 1015.9
20260904005037 69 23 3.0 3.0 0.07 1.79 1.79 99 1016.4
20260904004533 69 55 0.0 0.0 0.05 1.79 1.79 99 1017.7
20260904004028 69 43 1.0 2.0 0.05 1.78 1.78 99 1018.3
20260904003525 69 323 1.0 3.0 0.05 1.78 1.78 99 1018.4
20260904003020 69 301 2.0 3.0 0.12 1.77 1.77 99 1018.6
20260904002516 69 5 3.0 9.0 0.52 1.76 1.76 99 1018.3
20260904002015 69 5 4.0 12.0 1.63 1.74 1.74 99 1017.6
20260904001511 69 355 6.0 13.0 1.77 1.66 1.66 99 1017.3
20260904001010 69 299 4.0 10.0 0.24 1.40 1.40 99 1018.0
20260904000509 68 341 6.0 7.0 0.00 1.36 1.36 99 1017.0
20260904000006 68 333 0.0 2.0 0.00 1.36 1.36 99 1015.9
20260903235501 68 38 0.0 0.0 0.00 1.36 1.36 99 1015.7
20260903235000 68 77 1.0 2.0 0.00 1.36 1.36 99 1015.7
20260903234456 69 99 2.0 3.0 0.00 1.36 1.36 99 1015.7
20260903233952 69 74 1.0 2.0 0.02 1.36 1.36 99 1016.0
20260903233448 69 25 0.0 1.0 0.02 1.36 1.36 99 1016.2
20260903232943 69 336 0.0 3.0 0.07 1.36 1.36 99 1016.3
20260903232438 69 275 2.0 3.0 0.07 1.36 1.36 99 1016.5
20260903231938 68 309 0.0 1.0 0.00 1.35 1.35 99 1016.4
20260903231434 69 269 0.0 2.0 0.00 1.35 1.35 99 1016.4
20260903230927 69 242 2.0 5.0 0.02 1.35 1.35 99 1017.1
20260903230423 69 246 4.0 6.0 0.05 1.35 1.35 99 1016.5
20260903225920 69 348 1.0 3.0 0.47 1.34 1.34 99 1015.9
20260903225415 69 354 0.0 5.0 0.50 1.34 1.34 99 1016.0
20260903224911 69 281 2.0 3.0 0.07 1.26 1.26 99 1016.6
20260903224407 69 44 0.0 2.0 0.31 1.26 1.26 99 1015.5
20260903223903 69 269 0.0 3.0 0.40 1.24 1.24 99 1015.8
20260903223401 69 263 1.0 5.0 0.26 1.20 1.20 99 1016.2
20260903222856 69 311 0.0 3.0 0.31 1.18 1.18 99 1016.6
20260903222356 69 164 1.0 4.0 0.12 1.14 1.14 99 1016.8
20260903221851 69 321 0.0 4.0 0.17 1.12 1.12 99 1016.5
20260903221349 69 246 0.0 3.0 0.17 1.11 1.11 99 1015.8
20260903220848 69 18 2.0 5.0 0.14 1.09 1.09 99 1015.9
20260903220342 69 347 3.0 8.0 0.28 1.09 1.09 99 1015.7